User: anonymous   Login
Location: Hepcat Sky Observatory
(29.9800°N, 95.6500°W)
Time: 15:37:24
(UTC-05:00)
Language:

Cosmos 1602 Rocket - Orbit

View from above orbital plane
View from above orbital plane
View from above satellite
View from above satellite

Ground track
Ground track

The orbit data is extracted from the following two-line orbital elements,

1 15332U 84105B   17142.80135948 +.00000084 +00000-0 +72554-5 0  9995
2 15332 082.5361 211.8006 0022775 093.9814 044.9310 14.83305241741730
Epoch (UTC): 22 May 2017 19:13:57
Eccentricity: 0.0022775
inclination: 82.5361°
perigee height: 603 km
apogee height: 635 km
right ascension of ascending node: 211.8006°
argument of perigee: 93.9814°
revolutions per day: 14.83305241
mean anomaly at epoch: 44.9310°
orbit number at epoch: 74173

The dashed part of the orbit path shows where the satellite is in the earth's shadow,  

DLR